Terminal Aerodrome Forecast
Issued by NWS

Home | Current Version | Previous Version | Graphics & Text | Print | Product List | Glossary On
Versions: 1 2 3 4 5 6 7 8 9 10 11 12 13 14 15 16 17 18 19 20 21 22 23 24 25 26 27
000
FTUS43 KLOT 140320 AAA
TAFGYY
TAF AMD
KGYY 140320Z 1403/1424 16005KT P6SM OVC060
     FM140600 14006KT 6SM BR VCSH FEW020 OVC045
     FM140900 14006KT 5SM SHRA BR VCTS SCT010 OVC015CB
     FM141300 15009KT 6SM BR VCSH SCT010 OVC015
     FM141900 18012KT 6SM BR VCSH BKN025 BKN050=

USA.gov is the U.S. government's official web portal to all federal, state and local government web resources and services.